Clearfield, PA

9:40 PM EDT on July 25, 2017 (GMT -0400)
Clearfield-Lawrence

Weather History for KFIG - December, 2012

Change the Weather History Date:

Monday, December 10, 2012

  Actual Average (KDUJ) Record (KDUJ)
Temperature  
Mean Temperature 44 °F -  
Max Temperature 53 °F 35 °F 59 °F (1966)
Min Temperature 35 °F 23 °F -1 °F (1968)
Degree Days  
Heating Degree Days 21    
Moisture  
Dew Point 43 °F    
Average Humidity 96    
Maximum Humidity 100    
Minimum Humidity 86    
Precipitation  
Precipitation 0.64 in - - ()
Sea Level Pressure  
Sea Level Pressure 29.67 in    
Wind  
Wind Speed 5 mph (WNW)    
Max Wind Speed 16 mph    
Max Gust Speed 23 mph    
Visibility 5 miles    
Events Fog , Rain    
Averages and records for this station are not official NWS values.
T = Trace of Precipitation, MM = Missing Value Source: NWS Daily Summary

Daily Weather History Graph

Daily Weather History Graph

Search for Another Location

Airport or City:

Trip Planner

Search our weather history database for the weather conditions in past years. The results will help you decide how hot, cold, wet, or windy it might be!

Date:

Astronomy

Dec. 10, 2012 Rise Set
Actual Time 7:28 AM EST 4:45 PM EST
Civil Twilight 6:57 AM EST 5:16 PM EST
Nautical Twilight 6:22 AM EST 5:50 PM EST
Astronomical Twilight 5:49 AM EST 6:24 PM EST
Moon 4:08 AM EST (12/10) 2:33 PM EST (12/10)
Length of Visible Light 10h 19m
Length of Day
9h 17m
Waning Crescent, 10% of the Moon is Illuminated
Dec 10
Waning Crescent
Dec 13
New
Dec 20
First Quarter
Dec 28
Full
Jan 4
Last Quarter

Hourly Weather History & Observations

Time (EST) Temp. Windchill Dew Point Humidity Pressure Visibility Wind Dir Wind Speed Gust Speed Precip Events Conditions
12:23 AM 39.2 °F 35.9 °F 39.2 °F 100% 29.83 in 1.8 mi NE 4.6 mph - 0.02 in Rain Rain
12:29 AM 39.2 °F 37.0 °F 39.2 °F 100% 29.83 in 3.0 mi NE 3.5 mph - 0.03 in Rain Light Rain
12:54 AM 41.0 °F 39.0 °F 39.9 °F 96% 29.85 in 10.0 mi ENE 3.5 mph - 0.04 in   Overcast
1:54 AM 42.1 °F 40.2 °F 41.0 °F 96% 29.81 in 9.0 mi East 3.5 mph - 0.00 in   Overcast
2:35 AM 42.8 °F 40.1 °F 41.0 °F 93% 29.77 in 1.8 mi NNE 4.6 mph - 0.10 in Rain Rain
2:44 AM 41.0 °F 39.0 °F 41.0 °F 100% 29.77 in 0.5 mi North 3.5 mph - 0.11 in Fog , Rain Rain
2:54 AM 42.1 °F - 41.0 °F 96% 29.80 in 1.5 mi Calm Calm - 0.11 in Rain Light Rain
2:59 AM 42.8 °F 40.1 °F 41.0 °F 93% 29.76 in 3.0 mi NNE 4.6 mph - 0.00 in Rain Light Rain
3:04 AM 42.8 °F 40.1 °F 41.0 °F 93% 29.76 in 1.8 mi NNE 4.6 mph - 0.01 in Rain Light Rain
3:20 AM 42.8 °F 39.3 °F 41.0 °F 93% 29.74 in 3.0 mi NE 5.8 mph - 0.02 in Rain Rain
3:44 AM 42.8 °F 40.1 °F 41.0 °F 93% 29.72 in 1.8 mi NNE 4.6 mph - 0.03 in Rain Light Rain
3:54 AM 42.1 °F 40.2 °F 41.0 °F 96% 29.74 in 0.5 mi NNE 3.5 mph - 0.03 in Fog , Rain Light Rain
4:26 AM 42.8 °F 40.1 °F 42.8 °F 100% 29.70 in 1.0 mi North 4.6 mph - 0.01 in Rain Light Rain
4:46 AM 42.8 °F 39.3 °F 42.8 °F 100% 29.69 in 2.5 mi North 5.8 mph - 0.01 in Rain Light Rain
4:54 AM 42.1 °F 38.4 °F 42.1 °F 100% 29.72 in 1.2 mi North 5.8 mph - 0.01 in Rain Light Rain
5:20 AM 42.8 °F - 42.8 °F 100% 29.70 in 2.0 mi Calm Calm - 0.07 in Rain Heavy Rain
5:27 AM 42.8 °F 41.1 °F 42.8 °F 100% 29.70 in 1.8 mi WSW 3.5 mph - 0.11 in Rain Heavy Rain
5:35 AM 44.6 °F 43.1 °F 44.6 °F 100% 29.69 in 2.0 mi South 3.5 mph - 0.16 in Rain Heavy Rain
5:39 AM 44.6 °F 43.1 °F 44.6 °F 100% 29.69 in 1.5 mi SSE 3.5 mph - 0.21 in Rain Heavy Rain
5:48 AM 44.6 °F - 44.6 °F 100% 29.69 in 0.8 mi Calm Calm - 0.24 in Rain Rain
5:54 AM 43.0 °F - 42.1 °F 97% 29.72 in 1.2 mi Calm Calm - 0.24 in Rain Light Rain
6:12 AM 42.8 °F - 42.8 °F 100% 29.69 in 0.5 mi Calm Calm - 0.01 in Fog , Rain Light Rain
6:29 AM 42.8 °F - 42.8 °F 100% 29.68 in 1.8 mi Calm Calm - 0.03 in Rain Rain
6:44 AM 42.8 °F 38.0 °F 41.0 °F 93% 29.68 in 0.2 mi NNW 8.1 mph - 0.05 in Fog , Rain Light Rain
6:52 AM 42.8 °F 41.1 °F 42.8 °F 100% 29.68 in 0.5 mi North 3.5 mph - 0.05 in Fog , Rain Light Rain
6:54 AM 43.0 °F 41.3 °F 43.0 °F 100% 29.71 in 0.5 mi Variable 3.5 mph - 0.05 in Fog , Rain Light Rain
6:59 AM 44.6 °F 42.2 °F 44.6 °F 100% 29.68 in 2.0 mi Variable 4.6 mph - 0.00 in   Overcast
7:04 AM 44.6 °F 42.2 °F 44.6 °F 100% 29.68 in 6.0 mi WNW 4.6 mph - 0.00 in   Overcast
7:11 AM 44.6 °F 43.1 °F 44.6 °F 100% 29.68 in 7.0 mi West 3.5 mph - 0.00 in Rain Light Rain
7:18 AM 44.6 °F - 44.6 °F 100% 29.67 in 8.0 mi Calm Calm - 0.00 in Rain Light Rain
7:37 AM 42.8 °F 39.3 °F 42.8 °F 100% 29.67 in 0.8 mi NNW 5.8 mph - 0.00 in   Overcast
7:45 AM 42.8 °F 40.1 °F 42.8 °F 100% 29.66 in 0.2 mi NNW 4.6 mph - 0.00 in Fog Fog
7:54 AM 44.1 °F 41.5 °F 43.0 °F 96% 29.70 in 0.5 mi West 4.6 mph - 0.00 in Fog Fog
7:58 AM 44.6 °F 42.2 °F 44.6 °F 100% 29.67 in 2.5 mi WNW 4.6 mph - N/A   Overcast
8:05 AM 44.6 °F 42.2 °F 44.6 °F 100% 29.67 in 9.0 mi West 4.6 mph - N/A   Overcast
8:35 AM 46.4 °F - 46.4 °F 100% 29.67 in 1.8 mi Calm Calm - N/A   Overcast
8:47 AM 44.6 °F 43.1 °F 44.6 °F 100% 29.67 in 0.2 mi SW 3.5 mph - N/A Fog Fog
8:54 AM 46.9 °F - 46.0 °F 97% 29.69 in 0.2 mi SW 5.8 mph - N/A Fog Fog
8:58 AM 48.2 °F - 46.4 °F 93% 29.67 in 1.0 mi SSW 6.9 mph - N/A   Overcast
9:06 AM 48.2 °F - 48.2 °F 100% 29.67 in 2.5 mi SSW 5.8 mph - 0.00 in Rain Light Rain
9:38 AM 48.2 °F - 48.2 °F 100% 29.65 in 3.0 mi Calm Calm - 0.01 in Rain Light Rain
9:54 AM 48.9 °F - 48.0 °F 97% 29.68 in 6.0 mi WSW 4.6 mph - 0.01 in Rain Light Rain
10:54 AM 51.1 °F - 50.0 °F 96% 29.65 in 10.0 mi SW 5.8 mph - 0.01 in   Mostly Cloudy
11:54 AM 52.0 °F - 51.1 °F 97% 29.60 in 10.0 mi South 6.9 mph - N/A   Mostly Cloudy
12:34 PM 51.8 °F - 51.8 °F 100% 29.57 in 10.0 mi SSW 5.8 mph - N/A   Mostly Cloudy
12:54 PM 52.0 °F - 51.1 °F 97% 29.56 in 10.0 mi SSW 5.8 mph - N/A   Overcast
1:54 PM 53.1 °F - 51.1 °F 93% 29.55 in 10.0 mi SSW 5.8 mph - 0.00 in Rain Light Rain
2:54 PM 52.0 °F - 51.1 °F 97% 29.55 in 7.0 mi SSW 8.1 mph - 0.02 in Rain Light Rain
3:41 PM 51.8 °F - 51.8 °F 100% 29.53 in 5.0 mi SSW 9.2 mph - 0.03 in Rain Light Rain
3:54 PM 52.0 °F - 52.0 °F 100% 29.55 in 5.0 mi SSW 10.4 mph - 0.04 in Rain Light Rain
4:01 PM 51.8 °F - 51.8 °F 100% 29.54 in 4.0 mi SW 10.4 mph 18.4 mph 0.01 in Rain Light Rain
4:04 PM 51.8 °F - 51.8 °F 100% 29.54 in 2.5 mi SSW 11.5 mph 18.4 mph 0.03 in Rain Rain
4:09 PM 51.8 °F - 50.0 °F 94% 29.54 in 3.0 mi WSW 16.1 mph 23.0 mph 0.03 in Rain Light Rain
4:16 PM 51.8 °F - 48.2 °F 88% 29.54 in 10.0 mi SW 9.2 mph 23.0 mph 0.03 in Rain Light Rain
4:22 PM 51.8 °F - 50.0 °F 94% 29.54 in 10.0 mi WSW 8.1 mph - 0.03 in Rain Light Rain
4:54 PM 48.9 °F - 48.0 °F 97% 29.56 in 10.0 mi West 8.1 mph - 0.04 in Rain Light Rain
5:06 PM 48.2 °F - 48.2 °F 100% 29.56 in 10.0 mi WNW 9.2 mph - 0.00 in Rain Light Rain
5:15 PM 48.2 °F - 46.4 °F 93% 29.55 in 10.0 mi WNW 8.1 mph - 0.00 in Rain Light Rain
5:25 PM 46.4 °F 40.7 °F 44.6 °F 93% 29.56 in 10.0 mi NW 12.7 mph - 0.00 in Rain Light Rain
5:52 PM 44.6 °F 40.2 °F 42.8 °F 93% 29.57 in 10.0 mi NNW 8.1 mph 17.3 mph 0.00 in   Overcast
5:54 PM 45.0 °F 41.8 °F 43.0 °F 93% 29.59 in 10.0 mi NNW 5.8 mph 17.3 mph 0.00 in   Overcast
6:02 PM 44.6 °F 38.4 °F 42.8 °F 93% 29.59 in 10.0 mi NNW 12.7 mph 19.6 mph N/A   Overcast
6:16 PM 42.8 °F 37.5 °F 42.8 °F 100% 29.59 in 10.0 mi NNW 9.2 mph - N/A   Overcast
6:23 PM 42.8 °F 36.6 °F 41.0 °F 93% 29.59 in 10.0 mi NNW 11.5 mph - N/A   Overcast
6:45 PM 41.0 °F 35.2 °F 39.2 °F 93% 29.61 in 10.0 mi NW 9.2 mph - 0.01 in Rain Light Rain
6:54 PM 39.9 °F 34.5 °F 37.9 °F 93% 29.65 in 10.0 mi NNW 8.1 mph - 0.01 in Rain Light Rain
7:54 PM 39.9 °F 35.8 °F 37.0 °F 89% 29.70 in 10.0 mi NW 5.8 mph - 0.01 in   Overcast
8:01 PM 39.2 °F 34.2 °F 37.4 °F 93% 29.69 in 10.0 mi West 6.9 mph - N/A   Overcast
8:14 PM 39.2 °F 33.6 °F 35.6 °F 87% 29.68 in 10.0 mi WNW 8.1 mph - N/A   Overcast
8:54 PM 37.9 °F 32.1 °F 34.0 °F 86% 29.73 in 10.0 mi West 8.1 mph - N/A   Overcast
9:13 PM 37.4 °F 32.8 °F 35.6 °F 93% 29.70 in 7.0 mi West 5.8 mph - 0.01 in Rain Rain
9:33 PM 35.6 °F 31.7 °F 33.8 °F 93% 29.69 in 10.0 mi West 4.6 mph - 0.02 in Rain Light Rain
9:54 PM 36.0 °F - 34.0 °F 93% 29.70 in 10.0 mi Calm Calm - 0.02 in   Overcast
10:54 PM 35.1 °F 29.3 °F 34.0 °F 96% 29.73 in 10.0 mi WSW 6.9 mph - 0.00 in   Overcast
11:35 PM 35.6 °F 29.2 °F 33.8 °F 93% 29.74 in 10.0 mi WSW 8.1 mph - N/A   Overcast
11:46 PM 35.6 °F 28.6 °F 33.8 °F 93% 29.74 in 10.0 mi West 9.2 mph - N/A   Overcast
11:54 PM 36.0 °F 31.1 °F 34.0 °F 93% 29.75 in 10.0 mi West 5.8 mph - N/A   Overcast